Meteo Giornale » Osservazioni meteo Francia » Parigi-Orly

ore: 02:30 - Osservazioni Meteo Parigi-Orly
Lat. 48° 44' N Lon. 2° 24' E Alt. 89 metri s.l.m.

sereno Europe/Paris

12 °C

Sereno

Temp. 24 Ore

11 °C

17 °C

Sud

7.4 Km/h

Dew point 9 °C

Umidità 81 %

Visibilità  10 Km

Il sole sorge alle ore 08:19

Il sole tramonta alle ore 18:50

Data e Ora Cielo e Fenomeni T °C DP °C Um. % Pres. hPa Vis. km Vento km/h
Oggi h: 02:30 sereno Sereno 12 9 81 1013 10 S 7.4
Oggi h: 02:00 sereno Sereno 12 9 81 1013 10 S 13
Oggi h: 01:30 sereno Sereno 11 9 87 1013 10 S 11.1
Oggi h: 01:00 sereno Sereno 11 8 81 1013 10 S 7.4
Oggi h: 00:30 sereno Sereno 12 8 76 1013 10 S 7.4
Ieri h: 23:30 sereno Sereno 12 8 76 1014 10 S 11.1
Ieri h: 23:00 sereno Sereno 12 8 76 1014 10 S 7.4
Ieri h: 22:30 sereno Sereno 12 8 76 1014 10 S 7.4
Ieri h: 22:00 sereno Sereno 11 8 81 1014 10 S 9.3
Ieri h: 21:30 sereno Sereno 11 8 81 1014 10 S 11.1
Ieri h: 21:00 sereno Sereno 12 8 76 1014 10 S/SO 9.3
Ieri h: 20:30 sereno Sereno 13 8 71 1015 10 S 7.4
Ieri h: 20:00 sereno Sereno 13 8 71 1015 10 S/SO 7.4
Ieri h: 19:30 poco_nuvoloso Poco Nuvoloso 13 8 71 1015 10 S 7.4
Ieri h: 19:00 poco_nuvoloso Poco Nuvoloso 14 8 67 1015 10 S/SO 7.4
Ieri h: 18:30 poco_nuvoloso Poco Nuvoloso 15 8 62 1014 10 SO 13
Ieri h: 18:00 poco_nuvoloso Poco Nuvoloso 15 8 62 1014 10 SO 20.3
Ieri h: 17:30 poco_nuvoloso Poco Nuvoloso 16 7 55 1014 10 SO 20.3
Ieri h: 17:00 nuvoloso Nuvoloso 16 7 55 1014 10 SO 22.2
Ieri h: 16:30 poco_nuvoloso Poco Nuvoloso 17 8 55 1014 10 SO 24
Ieri h: 16:00 poco_nuvoloso Poco Nuvoloso 17 7 51 1014 10 O/SO 22.2
Ieri h: 15:30 nuvoloso Nuvoloso 17 7 51 1014 10 O/SO 16.7
Ieri h: 15:00 molto_nuvoloso Molto Nuvoloso 17 7 51 1014 10 O/SO 22.2
Ieri h: 14:30 nuvoloso Nuvoloso 15 6 54 1015 10 O/SO 25.9
Ieri h: 14:00 nuvoloso Nuvoloso 16 7 55 1015 10 O/SO 29.6
Ieri h: 13:30 nuvoloso Nuvoloso 15 7 58 1015 10 SO 25.9
Ieri h: 13:00 nuvoloso Nuvoloso 15 8 62 1015 10 O/SO 27.8
Ieri h: 12:30 poco_nuvoloso Poco Nuvoloso 15 8 62 1014 10 O/SO 27.8
Ieri h: 12:00 poco_nuvoloso Poco Nuvoloso 15 8 62 1014 10 O/SO 25.9
Ieri h: 11:30 poco_nuvoloso Poco Nuvoloso 14 9 71 1014 10 O/SO 24
Ieri h: 11:00 poco_nuvoloso Poco Nuvoloso 13 9 76 1014 10 SO 22.2
Ieri h: 10:30 poco_nuvoloso Poco Nuvoloso 13 9 76 1013 10 SO 20.3
Ieri h: 10:00 poco_nuvoloso Poco Nuvoloso 12 9 81 1013 10 SO 22.2
Ieri h: 09:30 poco_nuvoloso Poco Nuvoloso 12 9 81 1012 10 SO 18.5
Ieri h: 09:00 poco_nuvoloso Poco Nuvoloso 11 9 87 1012 10 SO 18.5
Ieri h: 08:30 poco_nuvoloso Poco Nuvoloso 11 9 87 1011 10 SO 14.8
Ieri h: 08:00 poco_nuvoloso Poco Nuvoloso 11 9 87 1011 10 SO 13
Ieri h: 07:30 poco_nuvoloso Poco Nuvoloso 12 9 81 1010 10 SO 13
Ieri h: 07:00 poco_nuvoloso Poco Nuvoloso 12 9 81 1010 10 SO 14.8
Ieri h: 06:30 nuvoloso Nuvoloso 12 10 87 1010 10 SO 16.7
Ieri h: 06:00 molto_nuvoloso Molto Nuvoloso 13 10 81 1009 10 SO 14.8
Ieri h: 05:30 molto_nuvoloso Molto Nuvoloso 13 10 81 1009 10 SO 18.5
Ieri h: 05:00 sereno Sereno 13 11 87 1009 10 SO 14.8
Ieri h: 04:30 molto_nuvoloso Molto Nuvoloso 14 12 87 1008 10 SO 14.8
Ieri h: 04:00 coperto_pioggia Pioggia Debole 14 12 87 1008 10 SO 22.2